World > North America > United States > Florida   Village of North Palm Beach, FL

North Palm Beach, Florida Regional Weather

Lat: 26.82N, Lon: 80.08W
Wx Zone: FLZ168Web Search
North Palm Beach Weather Warning NWS WEATHER ALERT FOR THE NORTH PALM BEACH, FL AREA - Issued: 422 PM EST Sat Jan 23 2021 North Palm Beach Weather Warning  

Helpful Tip: Abbreviated, 7 Day, 14 Day Forecasts. There is a weather forecast for every taste.

Feedback
North Palm Beach Weather Map
UTC Time: 1/24/2021, 01:56
Your Time:

North Palm Beach, FL Regional Weather

Expires:202101240200;;387213
ASUS42 KTBW 240117
RWRFL 
FLORIDA REGIONAL WEATHER ROUNDUP
NATIONAL WEATHER SERVICE TAMPA BAY RUSKIN FL
800 PM EST SAT JAN 23 2021

NOTE: "FAIR" INDICATES FEW OR NO CLOUDS BELOW 12,000 FEET WITH NO
SIGNIFICANT WEATHER AND/OR OBSTRUCTIONS TO VISIBILITY.


FLZ067-068-071>074-168-172>174-240200-
SOUTHEAST FLORIDA 
  
CITY           SKY/WX    TMP DP  RH WIND       PRES   REMARKS
W PALM BEACH   PTCLDY    73  64  73 NE5       30.10R                  
BOCA RATON     PTCLDY    70  64  83 E5        30.09R                  
FT LAUDER-EXEC CLEAR     71  64  78 CALM      30.08R                  
FT LAUDERDALE  CLEAR     72  66  81 E6        30.08R                  
POMPANO BEACH  CLEAR     71  65  81 NE5       30.08R                  
PEMBROKE PINES CLEAR     70  66  87 E6        30.10R                  
OPA LOCKA      CLEAR     68  62  81 E3        30.09R                  
MIAMI          CLEAR     71  63  75 E5        30.09R                  
WEST KENDALL   CLEAR     70  61  73 SE3       30.09R                  
HOMESTEAD      NOT AVBL                                               

STATION/POSITION SKY/WX   TEMP    WIND        PRES    WAVE   SWELL
                          AIR SEA DIR/SP/G            HT/PER HT/PER
                          (F)     (DEG/KT/KT) (MB)    (FT/S) (FT/S)
VIRGINIA KEY                       30/  3/  4   N/A
LAKE WORTH                         50/  6/  7   N/A
FOWEY ROCKS                73 73   60/  8/  9 1018.6R
SETTLEMENT POINT           72      50/  5/  6 1019.0R

$$

  

SKY/WX - Weather  TMP - Temperature  DP - Dew Point  RH - Relative Humidity
WIND - Wind Direction/Speed PRES - Barometric Pressure VSB - Visibility
WCI - Wind Chill Index E13G22 Wind - East Wind 13 mph/Gusts of 22 mph